Theta_e
329 329 331 332 329 323 321 322 322 323 325 327 327 328 328 330 332 333 334 335 337 337 337 337 337 339 340 341 341 341 342 342 342 341 342 340 340 340 340 339 339 339 339 339 341 343 345 351 349 348 349 348 349 349 350 351 350 349 350 351 352 351 351
327 329 331 332 329 323 322 323 323 322 324 326 326 327 328 329 331 331 333 334 335 336 337 337 339 338 339 340 341 342 341 342 343 346 343 343 345 345 342 341 340 341 342 342 342 342 346 345 348 347 347 348 348 350 349 349 350 350 349 350 350 350 351
327 329 330 331 330 324 322 322 323 323 323 325 326 326 327 328 330 331 333 334 334 336 337 336 339 337 338 339 340 341 341 341 342 342 342 341 341 343 345 346 345 344 345 346 346 345 348 347 348 347 346 346 346 348 348 349 350 349 349 350 350 349 349
327 328 330 332 331 326 323 323 324 323 323 324 326 326 326 328 330 331 332 334 334 335 335 336 337 338 338 338 338 339 341 342 342 342 342 343 343 344 345 346 348 350 349 349 350 351 350 351 350 352 355 351 351 354 355 353 351 349 348 348 347 346 345
327 329 330 331 330 326 324 323 323 323 323 324 326 327 326 328 329 330 332 334 334 335 336 336 337 338 339 339 339 339 341 342 343 344 344 346 348 348 346 347 348 349 350 350 354 356 357 357 357 355 351 347 344 342 342 342 343 345 345 345 343 342 341
327 328 329 330 330 327 325 324 324 324 324 324 324 326 326 327 329 329 331 334 334 335 336 337 337 339 339 340 339 340 341 342 345 347 347 348 349 349 349 350 352 354 355 355 360 359 357 353 346 342 340 337 335 334 333 333 333 334 334 335 335 334 334
327 329 330 331 331 328 326 325 325 325 325 326 326 328 328 327 328 329 330 332 334 334 334 335 336 337 339 341 340 341 340 340 343 345 349 350 350 350 352 354 358 354 353 357 353 351 346 341 339 336 334 332 332 330 329 329 329 330 330 331 330 331 332
329 329 330 331 331 329 327 327 326 325 325 326 326 327 327 327 328 329 330 331 333 334 334 334 335 336 338 341 341 340 341 346 346 348 350 351 352 354 354 353 359 359 353 349 346 342 338 336 334 332 331 330 328 328 327 328 328 327 328 327 327 327 328
330 330 330 330 331 329 328 328 328 326 325 326 327 328 329 328 328 329 330 331 333 333 334 335 336 337 338 339 341 343 345 347 350 351 351 352 352 353 357 356 355 352 348 344 340 337 335 332 331 330 329 328 327 327 326 327 326 326 326 326 325 325 325
329 329 330 331 331 330 330 329 329 328 326 326 327 329 330 329 329 329 330 332 333 333 334 335 336 337 338 339 341 345 347 348 350 351 352 353 356 356 354 351 349 348 344 340 336 333 333 331 329 329 328 326 326 326 326 326 325 325 325 325 325 324 323
329 330 330 330 329 329 329 329 329 328 328 328 328 329 331 331 329 329 331 332 333 334 335 336 338 338 339 340 343 346 347 350 353 354 355 354 353 350 348 347 347 345 340 337 334 333 332 331 330 328 328 326 326 325 326 326 326 325 325 325 325 324 322
328 329 329 330 329 328 328 330 331 331 330 330 329 330 331 332 331 330 331 333 334 334 336 337 338 339 340 341 343 346 349 353 354 353 352 350 348 346 346 346 343 339 337 334 332 331 330 330 329 328 326 326 326 326 326 327 326 325 325 325 324 323 322
328 328 329 329 329 329 329 330 330 331 332 331 331 331 331 331 331 331 332 333 335 336 336 338 339 340 341 343 345 349 352 353 352 351 349 347 345 345 344 342 340 337 334 333 331 330 329 328 327 327 326 326 326 325 325 326 326 326 326 325 324 322 321
333 329 329 329 329 327 328 329 330 331 332 332 332 332 332 332 332 332 333 334 335 337 338 340 340 342 343 345 348 351 352 352 350 347 345 344 343 342 341 338 336 334 332 331 329 328 327 326 325 325 325 324 324 325 325 325 326 326 326 326 324 322 320
327 327 328 327 327 327 328 328 330 331 331 332 333 332 333 333 332 333 335 336 337 338 339 342 342 344 346 348 350 351 350 348 346 346 344 342 340 339 338 336 334 332 331 330 329 327 326 325 324 323 323 323 323 323 324 324 325 326 325 325 325 323 320
326 327 327 326 327 327 328 329 330 331 331 332 332 332 332 333 332 333 334 335 337 339 342 344 345 347 349 349 349 349 347 345 344 341 340 339 337 336 335 333 331 329 328 327 327 326 326 325 324 323 322 321 321 322 322 323 325 328 328 328 326 324 321
326 327 327 327 327 327 328 329 330 330 331 331 332 332 333 333 333 333 335 337 339 341 345 346 348 349 349 348 348 345 343 341 340 339 337 337 336 335 333 332 330 329 328 327 327 326 326 323 323 322 322 321 320 321 321 323 325 326 325 325 327 327 323
326 326 327 327 326 326 327 328 329 330 330 331 332 333 333 333 333 333 334 338 340 345 349 349 349 349 348 346 344 342 340 339 338 336 335 335 334 334 333 332 330 329 327 326 326 325 324 322 322 322 321 320 320 320 322 323 325 323 324 324 324 326 324
326 327 327 328 327 326 327 328 329 330 331 331 332 333 333 334 333 333 336 340 345 350 349 349 349 347 344 343 341 340 338 337 336 335 334 333 332 332 331 330 329 328 327 326 326 324 323 322 322 321 321 320 320 321 322 322 324 322 322 322 323 325 323
326 328 328 328 328 327 327 329 330 331 331 332 333 334 334 336 335 335 340 346 350 350 349 347 345 344 342 341 339 338 337 335 334 333 332 330 329 329 328 327 326 327 327 326 325 324 323 323 322 322 322 322 321 321 321 322 324 322 321 321 322 324 322
327 328 328 328 328 328 328 328 329 330 331 332 334 336 338 339 343 346 348 350 349 348 346 345 343 341 340 338 337 336 335 334 333 331 329 328 327 326 325 325 325 325 325 324 324 323 323 323 323 324 324 322 321 321 320 320 323 321 320 320 321 322 321
328 329 329 331 330 330 329 329 329 330 331 336 340 343 342 344 348 348 349 350 348 346 345 343 341 339 338 336 335 334 333 332 331 329 327 326 325 324 323 324 324 324 325 324 323 323 323 323 323 322 322 322 321 318 318 319 323 320 319 319 320 321 319
334 334 335 335 334 333 335 334 333 334 339 342 345 347 347 350 349 349 348 346 345 344 342 341 339 337 337 334 333 333 332 331 329 327 326 324 323 323 323 323 323 323 324 322 322 322 322 322 323 324 323 323 322 320 318 319 322 319 318 318 320 321 319
344 344 343 342 340 338 337 337 339 344 345 347 349 350 351 350 349 347 345 344 343 341 340 339 337 336 335 333 333 332 331 330 328 326 325 324 323 323 323 323 323 324 324 321 320 320 321 321 321 321 321 321 320 322 318 319 322 318 316 316 318 320 318
349 350 350 348 345 342 342 345 349 351 351 350 349 351 350 349 347 345 343 342 341 340 338 337 335 334 333 332 332 331 330 329 327 326 324 323 323 323 322 322 323 323 322 321 320 320 321 321 318 318 319 320 320 322 319 319 320 319 315 315 316 320 319
349 351 352 354 353 351 352 354 353 351 350 349 350 350 349 347 345 343 341 341 340 338 337 336 334 333 332 332 331 330 328 328 327 325 324 323 323 323 323 323 321 320 319 319 319 319 320 320 317 316 317 317 316 316 318 320 319 320 314 313 314 317 321
351 353 352 352 353 353 353 352 351 349 348 348 349 348 347 346 343 341 341 340 338 337 336 334 333 332 331 330 329 328 327 326 325 324 324 323 323 324 323 321 319 319 318 318 318 318 317 316 317 315 315 316 316 315 316 321 320 320 315 313 312 315 319
351 351 352 352 351 351 350 348 347 347 346 346 346 346 345 344 341 340 339 338 335 334 333 332 331 331 330 328 327 326 326 325 325 325 324 325 324 320 319 319 319 319 318 318 318 316 316 317 317 314 313 314 315 316 314 318 322 321 317 313 311 312 316
346 349 349 349 349 350 348 345 344 343 343 343 343 342 342 342 339 338 336 333 331 331 331 330 329 329 328 327 326 326 325 325 326 325 324 324 323 320 318 318 318 319 319 316 315 314 314 314 314 313 313 313 314 314 315 314 317 320 320 315 311 310 313
344 345 346 349 349 347 345 342 342 340 340 340 339 339 338 338 335 334 332 330 331 330 330 329 328 328 327 327 325 325 325 325 325 325 324 324 322 321 318 318 318 317 316 316 316 313 313 313 313 313 313 312 313 314 315 315 314 317 318 317 313 310 310
341 342 344 345 345 344 342 340 339 338 337 337 336 336 335 335 333 331 328 329 331 329 328 328 328 327 325 324 324 324 324 324 323 323 323 323 322 320 318 317 315 314 314 315 314 314 313 314 315 313 313 313 312 312 314 314 314 314 317 316 316 313 312
338 340 342 342 341 341 340 340 339 338 336 336 336 336 335 334 333 329 328 330 330 329 329 328 326 325 324 323 323 323 323 322 322 323 323 323 323 321 317 315 315 313 312 313 314 314 314 316 315 315 313 311 312 312 313 314 314 314 314 315 314 316 315
337 339 339 339 340 339 339 338 337 336 335 334 335 335 335 333 332 330 330 330 330 330 329 327 326 326 324 322 322 322 322 321 321 321 322 322 320 318 317 315 314 315 316 314 313 314 316 316 317 315 314 312 312 313 314 313 313 313 313 312 312 313 314
335 336 337 339 339 339 338 337 336 335 335 335 335 334 333 331 330 330 330 329 328 328 327 328 325 323 322 321 322 322 321 322 326 323 320 320 318 315 314 315 315 315 314 313 313 313 313 314 315 314 313 311 311 312 313 313 313 313 310 310 311 312 312
333 334 335 336 337 338 337 336 336 335 334 333 333 332 331 330 330 330 329 329 328 327 327 327 327 323 321 321 321 322 324 324 323 321 319 317 315 314 314 314 314 314 313 313 312 313 312 310 312 313 311 311 311 312 312 313 312 313 307 309 306 309 311
331 332 333 334 335 335 336 336 335 334 332 331 331 331 331 330 330 330 330 329 329 328 327 326 323 321 320 320 321 322 322 321 319 318 317 314 312 311 311 312 308 311 315 317 318 313 310 311 314 312 310 310 312 313 311 312 312 305 298 298 298 299 300
331 331 332 333 333 332 333 333 334 333 331 330 331 331 330 329 330 329 329 328 328 328 326 324 322 321 320 321 320 321 319 318 316 315 313 312 312 312 312 309 309 299 305 315 313 303 298 300 305 309 313 315 311 316 314 310 302 297 297 299 298 298 299
331 331 332 333 332 332 333 333 332 331 331 331 331 330 330 329 329 329 328 328 327 327 325 323 322 320 320 320 320 321 318 315 315 314 312 312 312 312 311 309 308 308 300 298 301 299 296 295 292 292 297 302 309 318 313 308 301 297 298 300 299 298 298
Wind_Speed
10 8 8 8 7 7 9 10 11 11 11 11 12 13 12 11 11 10 10 11 11 11 9 9 10 8 10 10 10 9 10 9 8 8 8 8 8 8 7 7 7 6 6 6 6 5 5 4 4 5 5 7 7 8 8 7 8 9 8 8 7 8 8
10 10 9 9 7 7 8 10 10 10 10 11 11 12 11 12 11 11 11 11 13 13 12 11 10 10 11 11 10 9 9 10 9 7 7 6 5 6 6 6 6 6 5 5 5 5 4 6 5 6 7 6 7 7 7 7 6 6 6 6 6 6 5
10 10 10 8 8 8 8 8 10 11 11 11 11 11 12 12 13 13 12 11 11 11 9 10 11 12 12 11 8 9 10 9 8 9 9 9 8 7 6 5 6 5 4 4 4 6 4 6 5 5 6 6 6 4 4 4 5 5 5 4 4 5 6
12 12 11 9 8 8 9 10 11 11 11 12 13 13 13 13 12 12 12 12 13 12 11 10 10 11 10 9 10 9 9 9 9 9 9 8 7 6 5 5 4 3 4 5 5 5 5 5 5 4 4 4 5 6 7 7 6 7 8 8 8 8 8
12 10 8 9 9 9 9 9 10 11 11 12 12 13 14 13 12 10 10 11 13 14 14 14 11 11 9 9 8 8 9 10 9 8 7 6 4 3 5 4 3 4 4 5 4 4 4 3 4 5 6 6 6 7 7 8 8 8 8 8 7 7 7
13 12 11 10 9 9 9 10 11 12 11 11 11 11 11 12 10 12 12 11 11 10 9 9 10 9 9 10 9 9 6 7 6 6 6 4 3 4 4 4 4 4 5 3 3 3 5 6 7 7 7 7 7 8 7 8 8 8 8 7 7 7 6
13 12 11 11 11 10 10 10 10 11 11 11 10 10 10 10 12 12 10 11 11 12 11 10 10 8 9 7 8 8 9 8 6 5 3 3 4 4 4 4 4 3 2 6 6 6 7 7 7 7 7 8 7 8 7 8 8 7 6 7 7 6 6
12 12 12 12 11 10 9 9 10 10 9 8 9 9 10 10 9 10 10 11 11 9 9 10 9 8 8 7 7 8 8 3 2 4 5 5 5 5 4 2 1 4 6 7 6 7 8 8 7 7 7 7 8 7 7 7 7 7 6 7 6 6 5
13 13 13 12 11 10 9 10 10 10 11 11 11 11 11 9 10 10 11 10 9 10 10 9 10 8 7 6 6 5 2 3 4 5 6 6 5 4 3 5 5 5 7 7 7 7 7 7 7 7 7 8 8 7 7 7 7 7 7 7 7 6 6
12 11 11 12 10 9 9 9 9 8 10 11 10 9 9 9 9 10 9 10 9 10 11 9 7 6 6 6 4 4 5 5 5 6 5 5 4 6 6 6 6 7 8 8 7 8 7 7 7 7 7 8 8 7 7 7 7 8 7 7 7 7 6
13 14 13 12 11 10 8 8 9 9 10 10 10 9 8 8 9 9 9 9 9 10 10 8 6 6 6 5 5 6 6 6 6 6 6 6 6 8 7 7 7 7 8 7 8 7 6 6 7 8 7 7 7 7 7 7 7 7 7 6 6 6 6
10 11 12 13 13 11 11 11 10 9 9 9 10 9 8 8 9 10 10 10 9 10 8 7 6 6 6 6 7 6 7 7 7 7 8 8 8 8 8 7 8 8 7 7 8 7 7 7 7 7 8 7 7 7 6 6 6 6 6 6 6 6 6
10 10 11 13 12 11 10 9 11 12 11 10 10 9 9 10 10 9 9 9 8 8 8 7 6 6 7 6 7 7 7 7 7 8 8 9 8 7 7 8 8 8 8 7 7 7 7 7 8 7 7 7 7 7 6 5 5 5 6 5 5 5 6
8 8 7 8 9 11 12 12 11 11 11 10 10 9 9 10 10 11 11 11 9 8 7 5 6 7 7 7 7 7 7 7 8 9 9 9 8 8 8 8 8 8 7 7 8 8 7 7 7 7 7 7 7 6 6 5 6 7 6 4 3 4 5
8 10 10 11 12 12 12 12 11 11 11 11 10 11 10 9 8 7 8 8 8 8 7 6 8 7 8 8 8 8 8 8 8 8 10 9 9 9 9 9 8 8 7 8 7 7 7 7 7 7 7 6 6 6 6 5 6 6 7 7 5 4 6
10 9 11 13 13 13 13 14 12 12 12 11 12 12 10 8 8 9 10 9 7 6 5 7 7 9 8 9 9 9 9 10 9 9 10 9 9 9 9 9 8 8 8 8 8 7 6 7 7 7 6 6 6 5 4 4 4 10 13 11 8 4 4
10 11 12 12 12 13 12 12 12 12 12 13 13 13 11 11 10 10 9 7 7 7 7 8 9 8 9 10 10 10 10 10 10 10 10 9 9 9 9 9 8 8 8 8 7 7 6 6 7 6 6 5 4 4 3 3 6 14 13 12 12 6 3
11 12 12 12 12 11 10 11 12 12 13 12 12 12 11 10 8 8 9 8 7 7 8 8 9 10 10 11 11 11 11 10 11 10 9 9 9 9 9 9 9 8 8 8 7 6 6 6 6 5 4 3 3 2 3 5 12 12 12 11 11 9 5
12 12 14 13 13 13 13 14 14 14 14 11 11 11 11 11 9 10 9 9 8 9 9 9 10 11 11 11 12 11 11 11 12 11 9 9 9 9 8 8 9 8 8 7 6 6 7 6 5 4 2 2 2 5 6 4 10 10 11 10 10 10 7
9 9 9 11 14 15 14 12 11 12 13 13 13 13 11 10 12 9 8 9 9 11 10 11 10 11 12 11 11 12 11 11 12 10 10 9 9 9 9 9 8 7 6 7 6 6 6 5 4 3 2 3 5 4 4 3 9 10 11 11 11 11 8
4 5 7 8 9 10 11 11 11 9 8 7 6 5 6 5 6 8 9 10 10 10 12 11 12 12 12 12 11 11 11 12 12 11 10 10 11 11 9 9 8 7 6 6 6 7 6 5 4 3 3 4 4 2 3 3 9 9 11 11 10 10 7
4 4 4 3 4 5 7 11 12 12 10 5 7 7 8 8 9 10 10 9 11 11 12 12 12 12 11 12 11 11 11 12 12 11 10 11 11 11 9 8 8 8 7 7 7 6 5 3 3 4 5 3 2 2 3 3 9 10 11 11 9 8 5
3 4 6 6 5 4 2 4 3 3 4 7 9 10 9 10 10 11 11 11 11 12 11 12 12 12 11 11 11 11 11 12 13 11 12 11 11 10 9 9 7 6 6 7 6 5 4 4 4 3 2 2 2 3 4 4 8 10 11 10 10 6 5
5 5 5 5 5 5 4 3 2 4 8 9 8 8 9 11 12 13 12 11 11 12 11 11 11 11 11 11 11 11 11 11 12 13 11 11 11 9 8 7 6 6 5 7 5 5 4 4 4 3 2 3 4 4 4 5 8 13 12 10 10 6 5
6 6 5 4 5 7 8 7 8 6 7 10 11 9 11 12 13 13 12 12 11 11 12 11 12 12 12 12 11 11 11 11 11 12 11 11 9 8 8 7 6 6 5 5 4 5 4 3 4 2 2 3 4 7 6 5 7 12 12 11 10 7 4
6 7 8 8 7 5 7 10 11 9 7 7 9 11 12 13 13 14 14 12 12 12 12 12 12 11 11 11 11 10 9 9 10 10 11 11 9 8 8 7 7 7 6 5 4 4 4 3 2 4 4 4 4 5 5 6 6 8 12 11 10 9 4
6 7 8 9 9 8 8 8 10 11 10 7 7 7 10 11 13 13 13 13 12 12 11 11 12 12 11 10 10 10 10 9 10 12 10 10 11 9 8 7 8 7 7 7 5 4 3 2 1 5 5 5 5 5 6 5 6 7 11 12 11 10 7
8 9 9 9 10 12 11 11 12 14 14 11 10 8 5 6 11 12 12 11 11 11 11 12 12 11 11 12 11 11 10 10 10 9 9 9 10 10 10 8 7 7 7 5 5 4 3 2 3 5 5 5 6 6 5 6 9 6 9 12 11 10 9
7 9 10 11 11 12 15 13 13 13 13 13 13 11 9 8 8 9 10 12 13 12 13 13 13 13 13 12 12 11 11 10 11 9 8 8 9 10 9 9 8 7 6 6 5 4 3 3 4 5 6 6 6 5 5 5 6 10 8 10 11 11 10
7 8 7 8 10 12 15 15 14 13 12 13 13 12 12 12 10 8 9 12 11 13 14 14 14 14 14 12 12 12 11 10 10 9 8 9 9 9 9 10 9 7 6 5 4 4 4 3 4 5 6 6 6 5 5 5 5 7 10 9 11 11 11
6 7 8 10 11 11 11 14 15 14 14 13 17 15 15 14 15 13 12 7 5 9 15 15 16 15 15 14 13 13 11 11 10 10 10 9 10 9 9 10 10 8 5 5 4 4 5 3 4 5 5 6 6 5 5 5 5 5 7 10 10 11 11
6 7 9 10 10 11 12 13 13 14 14 12 16 18 19 20 19 18 12 10 8 1 5 13 15 15 15 14 13 13 13 12 11 10 10 9 7 7 7 9 9 9 7 5 5 4 5 4 4 5 5 6 4 4 4 4 5 6 6 6 6 6 10
7 8 11 13 12 14 13 14 13 13 14 13 6 8 16 20 20 20 17 13 11 6 1 5 12 13 14 14 13 12 12 14 11 10 10 10 9 6 6 7 7 7 6 6 6 5 4 4 5 5 5 5 4 3 3 5 6 6 6 6 6 6 6
5 5 3 7 10 10 11 13 15 15 15 14 12 2 4 15 19 20 17 14 13 13 7 3 9 13 13 15 13 12 11 11 15 13 10 9 10 8 6 5 6 7 7 7 7 6 5 5 5 6 5 5 4 4 5 5 5 6 6 6 5 5 4
2 2 5 6 5 5 8 9 11 13 12 10 7 11 7 7 15 20 21 16 15 15 13 8 7 9 12 11 10 9 8 9 10 9 9 8 7 6 4 6 7 7 5 2 2 5 7 6 5 5 4 5 4 5 5 5 5 4 2 3 4 3 3
3 5 5 3 4 4 4 3 5 7 8 7 6 6 7 3 4 14 16 16 13 14 13 10 8 7 8 8 9 8 7 7 7 7 7 7 7 7 6 9 9 3 6 5 4 4 2 3 4 5 5 5 2 1 5 4 0 3 5 4 2 1 1
4 3 3 5 7 6 6 7 7 7 8 8 7 7 8 9 5 11 15 15 13 14 13 12 10 8 8 9 8 9 8 7 7 7 7 7 8 7 7 6 6 10 9 6 6 6 8 9 10 7 3 4 4 2 3 5 5 6 4 4 5 4 5
3 3 3 2 5 8 9 8 7 8 9 8 7 8 9 11 9 10 15 15 15 14 14 12 11 10 9 9 10 10 8 8 7 6 7 7 7 7 8 7 7 5 6 5 4 5 6 7 6 5 5 5 4 4 3 4 7 7 5 3 5 5 5
Wind_Direction
191 187 192 191 193 185 180 185 183 190 193 190 189 191 191 190 192 188 190 188 195 202 198 192 198 197 202 207 208 206 208 209 205 214 215 221 222 231 236 238 240 248 254 255 269 277 292 307 294 270 256 247 248 252 250 252 254 258 261 260 264 268 274
194 192 194 194 189 190 185 182 183 186 192 192 190 190 190 191 191 191 193 189 196 198 195 194 197 202 205 212 210 207 207 210 208 214 217 230 231 234 234 244 237 250 251 264 283 283 280 268 251 260 260 257 254 258 264 269 273 279 280 284 282 287 301
194 194 196 193 188 189 187 182 183 184 187 191 190 189 192 192 192 193 189 190 197 202 199 198 201 204 208 211 207 212 211 211 210 212 216 221 227 230 230 232 246 259 271 263 249 258 238 259 255 257 266 276 291 316 329 346 353 351 343 342 6 24 31
196 195 194 187 189 188 187 184 183 184 186 187 188 190 193 195 194 192 190 189 192 196 198 204 205 212 211 208 213 214 212 212 212 215 221 221 227 223 228 239 242 255 260 253 251 253 266 271 289 310 335 358 30 33 38 36 35 33 36 48 55 50 47
197 190 182 186 193 191 190 185 184 183 185 189 190 189 190 192 192 190 193 194 192 195 198 200 203 209 212 210 215 214 214 210 211 215 218 219 212 207 227 245 242 241 253 259 263 271 293 351 26 36 44 40 41 39 37 36 37 35 41 43 49 40 39
190 188 189 189 191 190 188 188 186 184 183 184 187 189 190 187 187 190 192 191 199 203 201 202 205 203 208 211 211 217 209 210 208 208 210 201 181 206 228 230 229 244 263 313 17 39 50 53 50 47 51 47 45 44 40 39 38 37 40 45 47 44 42
188 187 188 190 191 190 187 187 187 186 185 185 184 184 183 181 187 192 188 193 195 195 200 203 209 198 213 202 212 214 215 208 195 188 144 142 165 195 214 218 227 259 42 58 45 52 59 62 61 60 62 58 53 49 45 41 40 37 40 46 47 46 46
184 186 191 189 191 184 183 185 186 184 183 179 177 180 185 186 185 187 188 194 193 197 201 202 205 203 206 199 205 210 218 188 104 129 145 154 170 190 202 202 61 88 79 74 64 65 70 69 68 67 65 66 57 53 50 47 45 39 40 42 38 38 36
187 187 187 188 188 183 181 183 185 181 180 180 183 185 185 180 182 189 191 190 192 192 205 204 208 205 195 196 201 204 133 120 130 135 151 163 176 164 111 91 88 90 92 86 81 72 73 77 76 72 70 67 57 51 47 41 40 35 35 34 30 26 24
183 185 190 187 185 182 182 184 182 177 182 185 186 182 181 181 184 190 189 191 187 197 206 207 207 188 182 194 177 133 137 134 138 138 146 146 127 102 95 94 87 85 86 90 85 84 79 76 77 73 68 67 60 52 47 40 34 31 28 25 19 15 10
186 186 183 183 182 180 177 178 180 185 185 187 189 184 177 174 183 186 195 190 190 203 205 203 186 177 182 162 151 146 140 145 142 137 126 107 102 100 98 93 91 84 88 92 88 88 89 79 72 69 63 63 58 53 46 38 32 26 23 18 15 9 4
186 181 186 184 181 176 179 183 183 185 188 190 189 184 178 179 183 191 193 196 194 200 200 198 175 180 153 153 154 150 149 145 140 129 118 111 105 105 99 96 93 96 92 94 97 88 77 77 69 69 68 62 56 51 43 35 29 26 17 11 9 8 7
182 185 182 183 183 183 180 180 186 189 189 190 190 187 183 181 185 190 194 201 201 202 200 188 168 152 149 149 148 148 147 143 132 124 117 113 109 104 99 97 99 97 95 93 90 88 83 76 76 67 66 58 50 42 32 23 22 21 13 9 13 9 6
183 178 183 180 178 180 184 188 189 190 191 191 192 189 189 190 185 187 191 200 203 202 194 160 145 143 142 143 142 142 137 125 119 116 113 112 108 103 101 100 97 93 94 89 83 79 79 76 75 71 62 53 47 35 28 17 23 20 13 2 11 14 7
183 186 181 183 191 186 185 188 191 193 191 195 192 189 191 189 190 194 202 202 199 193 188 151 140 140 140 140 138 133 125 117 112 112 112 111 109 106 103 100 97 95 89 87 86 82 79 77 75 72 63 49 42 31 20 17 19 17 15 10 16 28 7
186 189 190 191 191 192 191 190 190 192 191 195 194 193 188 185 187 190 192 200 192 180 149 136 140 139 141 136 129 124 122 120 118 117 116 112 109 108 106 101 99 95 90 86 83 84 80 77 71 66 58 50 36 27 12 2 13 20 16 17 12 28 7
190 189 194 199 195 194 195 193 193 192 194 197 195 193 187 189 189 188 191 186 174 164 153 140 140 139 135 127 127 126 124 122 123 120 115 115 110 109 105 102 101 97 93 87 83 82 85 79 73 63 56 50 38 25 12 332 18 10 8 7 5 16 16
195 195 193 194 196 195 195 196 196 197 199 199 197 193 188 187 182 173 183 170 164 151 142 136 135 130 126 127 128 129 129 127 125 120 118 115 110 107 106 104 100 96 93 95 93 91 88 78 74 72 63 56 42 22 12 17 17 3 2 359 359 6 17
204 200 193 189 187 191 194 196 198 198 200 197 194 191 195 182 167 180 173 162 154 138 137 131 129 126 127 132 132 134 133 131 127 123 119 114 112 110 107 103 99 99 103 103 109 102 89 90 87 88 72 52 41 33 20 348 13 1 0 359 359 6 22
214 212 206 195 188 190 196 197 199 199 197 193 193 194 186 175 179 176 157 144 138 137 132 128 129 130 133 135 137 137 135 131 127 121 117 116 113 111 108 105 104 107 108 112 107 97 97 102 103 101 84 54 42 26 356 317 5 357 3 5 4 14 26
230 215 204 206 207 199 195 197 197 199 198 196 179 154 134 143 127 123 129 136 132 131 130 132 133 136 141 139 139 135 133 130 125 119 118 117 115 112 110 111 113 109 111 111 107 111 116 123 114 96 70 47 31 5 0 335 10 4 9 9 5 12 22
175 182 219 242 242 245 213 194 190 190 194 158 142 148 152 150 141 135 135 133 132 135 136 137 137 138 138 136 137 136 134 129 123 119 120 120 118 116 115 116 118 119 117 105 108 110 117 114 107 83 64 48 25 353 3 339 18 16 17 15 4 17 18
147 165 163 163 162 192 243 298 269 189 134 145 149 147 149 141 137 131 131 133 136 135 136 135 136 139 137 134 135 134 134 130 126 125 125 125 122 119 119 118 113 107 105 102 102 112 105 103 79 63 42 11 351 28 10 356 17 25 24 17 11 21 17
108 118 123 133 124 119 119 115 114 147 150 141 140 138 136 138 136 134 132 132 134 132 132 133 135 137 135 135 137 134 133 132 130 128 127 125 121 116 109 103 100 100 104 111 121 111 105 90 74 47 27 37 23 42 25 354 10 24 24 22 15 26 14
107 101 89 97 132 131 130 130 129 131 133 136 135 140 137 135 133 130 130 133 134 134 136 138 138 140 139 137 135 132 129 128 125 124 122 116 111 111 111 109 105 100 97 98 102 100 103 90 77 83 34 38 36 42 43 12 13 20 17 21 18 19 9
75 85 85 85 76 101 120 123 114 106 108 121 131 134 136 136 134 133 134 137 138 139 139 140 137 131 128 127 126 122 118 118 115 114 116 115 109 105 107 105 99 100 101 92 83 92 73 93 101 82 51 28 36 35 20 28 17 17 14 19 20 16 27
68 85 92 93 96 94 86 86 101 102 97 91 99 122 135 137 133 135 137 137 136 136 135 131 126 124 121 115 111 110 108 109 114 115 112 118 120 119 109 104 110 107 102 96 85 79 77 82 151 72 56 32 32 37 20 20 25 12 19 20 20 18 24
95 86 85 93 100 99 95 90 88 93 91 85 77 63 56 107 124 126 129 126 122 121 118 116 114 111 108 106 105 106 107 109 111 113 119 122 121 115 109 107 107 106 99 95 97 98 88 61 74 78 63 45 37 36 19 9 31 23 22 23 21 21 20
114 115 114 113 106 110 111 104 101 101 105 100 92 83 75 69 90 110 113 114 119 120 118 116 115 114 112 111 111 109 113 117 118 119 121 120 116 114 120 119 110 104 98 103 103 104 102 75 79 77 67 56 38 27 17 3 14 28 26 21 23 20 25
117 117 103 102 114 118 113 113 115 110 103 102 97 91 89 92 85 81 95 110 123 121 120 119 119 118 116 113 117 118 120 122 122 121 121 123 121 124 135 121 117 117 115 119 123 125 104 91 86 79 70 62 44 26 11 1 3 19 28 22 18 21 23
131 124 120 120 122 119 117 123 124 122 120 118 113 107 101 98 99 96 89 75 88 129 131 130 128 126 126 127 128 129 133 131 131 134 135 133 135 142 139 125 130 126 131 127 127 129 117 105 89 90 91 70 58 28 10 359 6 19 17 14 9 20 19
121 125 121 120 119 125 127 124 125 126 126 129 132 131 129 128 125 125 134 135 122 103 143 133 131 130 132 133 135 137 137 133 135 135 131 132 138 141 139 139 141 135 140 135 135 140 127 124 109 102 88 87 61 44 10 358 22 21 16 13 359 4 6
152 153 146 142 144 138 137 134 131 130 129 129 133 138 141 140 137 134 135 134 125 101 328 145 131 129 132 135 136 139 141 142 145 144 144 143 134 136 145 138 141 137 137 140 142 139 134 127 115 102 92 87 76 51 38 39 32 22 9 13 357 353 340
161 154 146 140 146 142 138 143 142 143 145 148 149 178 204 146 136 134 132 136 134 128 136 188 147 139 141 142 144 148 152 148 146 141 141 148 139 141 144 141 148 146 147 155 153 142 142 133 116 113 114 105 102 81 57 40 39 33 10 348 343 327 333
154 136 139 149 146 143 145 149 150 151 148 143 147 144 180 176 140 135 135 138 139 137 137 163 159 143 142 138 132 130 131 132 136 144 142 140 133 112 126 152 153 134 116 62 198 168 148 137 128 126 124 116 112 98 77 48 36 12 352 298 287 287 339
132 137 134 109 103 81 85 90 112 121 118 122 129 130 126 73 107 125 124 128 136 133 135 149 149 142 130 120 119 121 120 124 137 137 135 138 128 119 84 48 52 67 136 138 103 94 76 144 146 159 145 112 113 117 111 103 129 346 356 320 345 6 340
137 130 136 135 121 101 92 100 107 114 127 137 141 134 125 118 146 137 131 134 141 137 137 146 145 140 133 129 124 128 129 135 136 142 139 145 139 129 122 120 64 43 46 90 123 115 101 97 105 114 116 126 128 132 107 100 70 37 6 29 41 46 49
82 84 101 108 127 118 115 119 130 143 147 144 144 143 141 143 169 164 141 140 138 136 142 151 147 146 144 136 134 133 133 144 144 146 147 149 143 136 138 132 123 90 36 41 89 105 114 120 120 116 105 78 83 108 96 72 51 29 17 40 67 64 65